This demonstration page uses our WeatherBlox Daily Observations layout. Learn more.

Left ArrowRight Arrow

53.62937, 11.41316

Hourly Observations for December 4, 2018

Temp ( °F °C ) Dew Point ( °F °C ) Humidity (%) Winds ( mph kmh ) Pressure ( in mb ) Visibility ( mi km ) Precip ( " mm )
6:50 am 06:50 Mostly Clear 41 5 37 3 87 87 WSW 7 11 29.74 1007 7 11 N/A
7:20 am 07:20 Mostly Clear 41 5 37 3 87 87 WSW 6 9 29.77 1008 7 11 N/A
7:50 am 07:50 Mostly Clear 41 5 36 2 81 81 WSW 7 11 29.77 1008 30 48 N/A
8:20 am 08:20 Mostly Sunny 41 5 36 2 81 81 SW 6 9 29.80 1009 30 48 N/A
8:50 am 08:50 Mostly Sunny 41 5 36 2 81 81 WSW 7 11 29.83 1010 30 48 N/A
9:20 am 09:20 Mostly Sunny 41 5 36 2 81 81 WSW 7 11 29.85 1011 7 11 N/A
9:50 am 09:50 Mostly Sunny 41 5 36 2 81 81 WSW 7 11 29.85 1011 30 48 N/A
10:20 am 10:20 Mostly Sunny 43 6 34 1 71 71 WSW 9 15 29.88 1012 30 48 N/A
10:50 am 10:50 Mostly Sunny 45 7 36 2 71 71 WSW 10 17 29.88 1012 30 48 N/A
11:20 am 11:20 Mostly Sunny 43 6 34 1 71 71 WSW 12 19 29.91 1013 30 48 N/A
11:50 am 11:50 Mostly Sunny 43 6 34 1 71 71 WSW 10 17 29.94 1014 30 48 N/A
12:20 pm 12:20 Mostly Cloudy 45 7 34 1 66 66 WSW 10 17 29.94 1014 30 48 N/A
12:50 pm 12:50 Mostly Sunny 45 7 34 1 66 66 W 10 17 29.97 1015 30 48 N/A
1:20 pm 13:20 Mostly Sunny 45 7 34 1 66 66 WSW 8 13 29.97 1015 7 11 N/A
1:50 pm 13:50 Mostly Sunny 45 7 32 0 61 61 WSW 9 15 29.97 1015 7 11 N/A
2:20 pm 14:20 Mostly Sunny 45 7 32 0 61 61 WSW 8 13 30.00 1016 7 11 N/A
2:50 pm 14:50 Mostly Sunny 45 7 32 0 61 61 WSW 10 17 30.03 1017 30 48 N/A
3:20 pm 15:20 Mostly Sunny 43 6 32 0 66 66 WSW 8 13 30.03 1017 30 48 N/A
3:50 pm 15:50 Mostly Sunny 43 6 32 0 66 66 W 8 13 30.06 1018 7 11 N/A
4:20 pm 16:20 Mostly Clear 43 6 32 0 66 66 WSW 7 11 30.06 1018 7 11 N/A
4:50 pm 16:50 Mostly Clear 43 6 32 0 66 66 WSW 8 13 30.09 1019 7 11 N/A
5:20 pm 17:20 Mostly Clear 41 5 32 0 70 70 WSW 7 11 30.09 1019 30 48 N/A
5:50 pm 17:50 Mostly Clear 41 5 30 -1 66 66 WSW 8 13 30.12 1020 7 11 N/A
6:20 pm 18:20 Mostly Clear 39 4 32 0 75 75 SW 6 9 30.12 1020 30 48 N/A
6:50 pm 18:50 Mostly Clear 39 4 32 0 75 75 SW 6 9 30.15 1021 30 48 N/A

Powered by AerisWeather